Regional Weather Roundup
Issued by NWS Kansas City/Pleasant Hill, MO

Home | Current Version | Previous Version | Text Only | Print | Product List | Glossary On
Versions: 1 2 3 4 5 6 7 8 9 10 11 12 13 14 15 16 17 18 19 20 21 22 23 24 25
000
ASUS43 KEAX 291210
RWREAX

WEATHER ROUNDUP FOR EASTERN KANSAS AND NORTHWEST MISSOURI
NATIONAL WEATHER SERVICE KANSAS CITY/PLEASANT HILL MO
700 AM CDT THU JUN 29 2017

KSZ040-057-103>105-MOZ028-029-037-043-291300-
...KANSAS CITY METROPOLITAN AREA...

CITY           SKY/WX    TMP DP  RH WIND       PRES   REMARKS
K.C. INTL      TSTM      67  65  93 N17G24    29.89R FOG
6HR MIN TEMP:  67; 6HR MAX TEMP:  80; 6HR PCP:  0.27;

K.C. DOWNTOWN  CLOUDY    75  67  76 SE9G20    29.83S THUNDER
6HR MIN TEMP:  73; 6HR MAX TEMP:  82;

LEES SUMMIT    CLOUDY    73  67  81 SE13G20   29.86F
6HR MIN TEMP:  73; 6HR MAX TEMP:  79;

OLATHE - IXD   CLOUDY    74  67  78 SE18      29.84F
6HR MIN TEMP:  74; 6HR MAX TEMP:  78;

OLATHE - OJC   CLOUDY    72  68  87 SE14      29.84F
6HR MIN TEMP:  72; 6HR MAX TEMP:  78;

LAWRENCE       LGT RAIN  67  66  97 NW14G20   29.87R FOG

$$

MOZ001>008-011>017-020>025-030>033-038>040-044>046-053-054-291300-
...NORTHERN AND CENTRAL MISSOURI...

CITY           SKY/WX    TMP DP  RH WIND       PRES   REMARKS
ST. JOSEPH     LGT RAIN  69  69 100 SW7       29.90R FOG
6HR MIN TEMP:  69; 6HR MAX TEMP:  75; 6HR PCP:  0.22;

MOSBY          CLOUDY    68  64  88 SE9G17    29.86S FOG
WARRENSBURG    CLOUDY    70  61  73 E8        29.89S
WHITEMAN AFB   CLOUDY    71  67  88 E6        29.89S
6HR MIN TEMP:  70; 6HR MAX TEMP:  76;

CLINTON        PTSUNNY   72  66  83 SE7       29.91R
SEDALIA        CLOUDY    72  64  76 E9        29.93F
6HR MIN TEMP:  71; 6HR MAX TEMP:  77;

WARSAW         NOT AVBL
CHILLICOTHE      N/A     69  66  90 S10G20    29.85F
6HR MIN TEMP:  66; 6HR MAX TEMP:  69; 6HR PCP:  2.20;

KIRKSVILLE     NOT AVBL

$$

MOZ041-047>049-056>058-063>065-088>090-097-291300-
...EASTERN AND SOUTHERN MISSOURI...

CITY           SKY/WX    TMP DP  RH WIND       PRES   REMARKS
ST. LOUIS INTL CLOUDY    75  61  61 S15       29.91F
6HR MIN TEMP:  74; 6HR MAX TEMP:  79; 6HR PCP:  0.01;

SPIRIT OF STL  CLOUDY    70  66  87 S12       29.91F
COLUMBIA       CLOUDY    67  63  87 SE7       29.94F
JEFFERSON CITY CLOUDY    72  60  66 E9        29.94F
ROLLA          PTSUNNY   73  66  78 CALM      29.96S
OSAGE BEACH    MOSUNNY   72  67  84 S6        29.94F
SPRINGFIELD    MOSUNNY   72  68  87 SE12      29.92S
BRANSON        PTSUNNY   68  66  94 SE5       29.96R
JOPLIN         CLEAR     74  68  81 SE7       29.89S
WEST PLAINS    SUNNY     68  65  90 CALM      30.00S

$$

IAZ060-094-KSZ022-034>040-054-083-096-NEZ052-066-093-291300-
...KANSAS...SOUTHEAST NEBRASKA AND IOWA...

CITY           SKY/WX    TMP DP  RH WIND       PRES   REMARKS
TOPEKA         LGT RAIN  66  66 100 E8        29.85F
6HR MIN TEMP:  66; 6HR MAX TEMP:  81; 6HR PCP:  1.23;

EMPORIA        CLOUDY    69  64  84 N10       29.88R
CHANUTE        CLEAR     73  67  81 S12       29.83R
WICHITA        MOCLDY    74  68  81 S17       29.76S
OMAHA          CLOUDY    73  67  81 S12       29.73F
LINCOLN        CLOUDY    70  64  81 W8        29.80R
FALLS CITY     LGT RAIN  67  66  97 SE20G35   29.69F
LAMONI         CLOUDY    67  64  90 S18       29.80F
DES MOINES     CLOUDY    73  66  78 SW13      29.74F

$$





USA.gov is the U.S. government's official web portal to all federal, state and local government web resources and services.